Regional Weather Roundup
Issued by NWS

Home | Current Version | Previous Version | Graphics & Text | Print | Product List | Glossary On
Versions: 1 2 3 4 5 6 7 8 9 10 11 12 13 14 15 16 17 18 19 20 21 22 23 24 25 26 27 28 29 30 31 32 33 34 35 36 37 38 39 40 41 42 43 44 45 46 47 48 49 50
000
ASUS45 KTFX 101210
RWRMT
MONTANA REGIONAL WEATHER ROUNDUP
NATIONAL WEATHER SERVICE GREAT FALLS MT
500 AM MST WED FEB 10 2016

NOTE: "FAIR" INDICATES FEW OR NO CLOUDS BELOW 12000 FEET WITH NO
SIGNIFICANT WEATHER AND/OR OBSTRUCTIONS TO VISIBILITY.

MTZ001>007-043-101300-
WEST OF THE DIVIDE

CITY           SKY/WX    TMP DP  RH WIND       PRES   REMARKS
KALISPELL      FOG       21  19  92 CALM      30.23S VSB 1/4
MISSOULA       PTCLDY    22  19  89 CALM      30.29R FOG
BUTTE          CLOUDY    11   7  84 SE5       30.25S
MULLAN PASS    PTCLDY    37  26  64 W8        30.22R WCI  31
ANACONDA         N/A     28  19  69 N3        30.23R
DEER LODGE       N/A     23  21  93 CALM      30.25S
HAMILTON         N/A     25  21  86 CALM      30.26R
LIBBY            N/A     21  19  93 CALM      30.26S
PLAINS           N/A     28  24  85 CALM      30.25R VSB 0
$$

MTZ008-052>055-101300-
SOUTHWEST MONTANA

CITY           SKY/WX    TMP DP  RH WIND       PRES   REMARKS
BOZEMAN        CLEAR     19  13  77 S8        30.22S WCI   9
DILLON         CLOUDY    32  22  66 SW20      30.22F WCI  20
ENNIS          CLEAR     34  23  64 S16       30.29  WCI  23
THREE FORKS      N/A     21   5  50 CALM      30.18R
TWIN BRIDGES     N/A     21  13  71 E6        30.21S WCI  13
$$

MTZ009-010-012-014-046-048-049-054-101300-
EAST SLOPES AND CENTRAL MONTANA

CITY           SKY/WX    TMP DP  RH WIND       PRES   REMARKS
CUT BANK       MOCLDY    46  26  45 W15       30.01R
GREAT FALLS    CLOUDY    46  23  40 SW16      30.02F
MALMSTROM AFB  CLOUDY    48  24  38 SW18      30.03S
HELENA         CLOUDY    29  25  85 CALM      30.19S
CHOTEAU          N/A     54  23  30 W20G29    30.00F
CONRAD           N/A     52  28  39 W15       30.02R
$$

MTZ011-013-016-021-045-047-050-051-101300-
NORTH CENTRAL MONTANA

CITY           SKY/WX    TMP DP  RH WIND       PRES   REMARKS
HAVRE          CLOUDY    37  25  61 SW14      29.98R WCI  28
LEWISTOWN      CLEAR     38  23  55 SW16      30.02S WCI  29
N BAR RANCH      N/A     50  16  25 W15G23    30.00
CHINOOK          N/A     36  25  64 W6        29.98R WCI  31
$$

MTZ017>020-022>027-061-062-101300-
NORTHEAST MONTANA

CITY           SKY/WX    TMP DP  RH WIND       PRES   REMARKS
GLASGOW        CLOUDY    32  26  78 W12       29.90R WCI  23
JORDAN           N/A     37  27  67 W7        29.92R WCI  32
SIDNEY         CLOUDY    25  21  86 S6        29.83S WCI  18
WOLF POINT     CLOUDY    33  28  81 SW9       29.88R WCI  25
PLENTYWOOD       N/A     28  25  86 W3        29.83R
POPLAR           N/A     30  27  86 W9        29.87R WCI  22
SCOBEY           N/A     34  24  67 SE2       29.86R
$$

MTZ028>42-056>058-101300-
SOUTHCENTRAL AND SOUTHEAST MONTANA

CITY           SKY/WX    TMP DP  RH WIND       PRES   REMARKS
BAKER          CLEAR     33  23  66 W13       29.88S WCI  24
BILLINGS       CLOUDY    45  20  36 SW20      30.01R
LIVINGSTON     CLOUDY    46  21  37 SW28G43   30.15R
MILES CITY     CLOUDY    34  24  67 W8        29.92R WCI  27
EKALAKA          N/A     38  19  46 W3        29.90
FORSYTH          N/A     41  21  45 SW7       29.95R
LAUREL           N/A     46  20  36 SW18      30.02S
ROUNDUP          N/A     48  15  27 SW3       29.90F
$$

REGIONAL REPORTS...DAKOTAS

CITY           SKY/WX    TMP DP  RH WIND       PRES   REMARKS
WILLISTON      CLOUDY    26  23  88 SE5       29.81R
MINOT          CLOUDY    19  12  74 E13       29.87R WCI   6
DICKINSON      CLOUDY    33  27  78 W12       29.79S WCI  24
BEACH            N/A     36  28  75 W15       29.86S WCI  26
CROSBY           N/A     19  19 100 NE7       29.86R WCI  10
TIOGA            N/A     19  19 100 CALM      29.84S
WATFORD CITY     N/A     27  25  93 SW7       29.81S WCI  19
BISMARCK       CLOUDY    24  18  77 SE8       29.88R WCI  15
GRAND FORKS    LGT SNOW   5  -2  72 SE7       30.13R WCI  -7
FARGO          FLURRIES   7   0  73 E5        30.10F
BUFFALO SD       N/A     37  26  64 NW18      29.78F WCI  27
RAPID CITY     CLOUDY    36  25  64 NW9       29.88S WCI  29
$$

REGIONAL REPORTS...WYOMING/IDAHO/WASHINGTON

CITY           SKY/WX    TMP DP  RH WIND       PRES   REMARKS
GILLETTE       CLOUDY    41  21  44 W12       29.99S
SHERIDAN       CLEAR     46  12  25 CALM      29.96F
BUFFALO WY     CLEAR     55  10  16 NW13      30.03R
CODY           CLOUDY    41  16  36 N5G25     30.09S
YELLOWSTONE LA   N/A      3  -1  83 CALM      30.38F
IDAHO FALLS    CLOUDY     6   2  83 N9        30.43R WCI  -8
SALMON         CLOUDY     5   3  92 CALM      30.43S
BOISE          FOG       29  28  96 N3        30.44R VSB 1/4
SPOKANE        PTCLDY    32  31  96 CALM      30.25R FOG
$$

REGIONAL REPORTS...ALBERTA

CITY           SKY/WX    TMP DP  RH WIND       PRES   REMARKS
EDMONTON       MOCLDY    30  27  86 CALM      30.08S
CALGARY        PTCLDY    32  19  59 NW6       30.04R WCI  26
LETHBRIDGE     CLEAR     43  19  39 N8        30.03R
MEDICINE HAT   CLEAR     28  23  80 N3        30.02R
WATERTON GATE    N/A     48  23  37 SW20G29     N/A
CARDSTON         N/A     48  23  37 W13G18      N/A
MILK RIVER       N/A     41  27  56 W9          N/A
ONEFOUR          N/A     34  27  75 NW15        N/A  WCI  24
$$

REGIONAL REPORTS...SASKATCHEWAN

CITY           SKY/WX    TMP DP  RH WIND       PRES   REMARKS
SWIFT CURRENT  CLEAR     28  27  93 W12       29.94R WCI  18
REGINA         CLOUDY    23  19  86 E5        29.89R
SASKATOON      MOCLDY    23  23 100 N7        29.98R WCI  15
CYPRESS HILLS    N/A     34  21  60 N9          N/A  WCI  26
VAL MARIE        N/A     27  23  86 NW3         N/A
ROCKGLEN         N/A     34  28  80 NW16G22     N/A  WCI  23
ASSINIBOIA       N/A     28  27  93 NW7         N/A  WCI  21
$$



USA.gov is the U.S. government's official web portal to all federal, state and local government web resources and services.